Flag for Ireland Weather past 2 weeks in Dublin, Ireland

46 °F

Passing clouds.

Feels Like: 40 °F
Forecast: N/A
Wind: 15 mph from West

Location: Dublin Airport

Current Time: Nov 25, 2015 at 6:29:05 PM

Latest Report: Nov 25, 2015 at 6:00 PM

Visibility: N/A

Pressure: 30.09 "Hg

Humidity: 87%

Dew point: 43 °F

Location of DublinLocation

Historic Weather in Dublin — Graph


Dublin temperature yesterday

Maximum temperature yesterday: 48 °F (at 12:00 PM)
Minimum temperature yesterday: 45 °F (at 12:30 AM)
Average temperature yesterday: 46 °F

Past Weeks' High & Low Weather Summary

High61 °F (Nov 10, 5:00 PM)100% (Nov 11, 5:30 AM)30.24 "Hg (Nov 11, 5:30 AM)
Low30 °F (Nov 22, 9:00 PM)59% (Nov 12, 10:00 AM)29.06 "Hg (Nov 17, 4:30 PM)
Average46 °F86%29.82 "Hg
* Reported Nov 10 5:00 PM — Nov 25 5:30 PM, Dublin, Weather by CustomWeather, © 2015

Note: Actual official high and low records may vary slightly from our data, if they occured in-between our weather recording intervals... More about our weather records


Dublin weather history for previous 24 hours

Time TempWeatherWind HumidityBarometerVisibility
5:30 PM
Wed, Nov 25
48 °FPartly cloudy.16 mph82%30.07 "HgN/A
5:00 PM48 °FPartly cloudy.16 mph82%30.07 "HgN/A
4:30 PM48 °FPartly cloudy.14 mph82%30.07 "HgN/A
4:00 PM48 °FBroken clouds.12 mph82%30.07 "HgN/A
3:30 PM48 °FBroken clouds.16 mph87%30.07 "HgN/A
3:00 PM50 °FBroken clouds.22 mph82%30.04 "HgN/A
2:30 PM50 °FBroken clouds.21 mph82%30.04 "HgN/A
2:00 PM50 °FBroken clouds.17 mph88%30.04 "HgN/A
1:30 PM50 °FDrizzle. Broken clouds.20 mph88%30.04 "HgN/A
1:00 PM50 °FDrizzle. Broken clouds.26 mph94%30.01 "Hg4 mi
12:30 PM50 °FScattered clouds.24 mph94%30.01 "HgN/A
12:00 PM50 °FDrizzle. Broken clouds.17 mph94%30.01 "HgN/A
11:30 AM50 °FBroken clouds.18 mph94%30.04 "HgN/A
11:00 AM50 °FBroken clouds.16 mph88%30.04 "HgN/A
10:30 AM50 °FPartly sunny.18 mph88%30.01 "HgN/A
10:00 AM48 °FDrizzle. Partly sunny.13 mph94%30.01 "HgN/A
9:30 AM48 °FDrizzle. Partly sunny.14 mph94%30.01 "HgN/A
9:00 AM48 °FDrizzle. Partly sunny.16 mph94%30.01 "HgN/A
8:30 AM48 °FDrizzle. Partly sunny.18 mph94%29.98 "HgN/A
8:00 AM48 °FPassing clouds.15 mph94%29.98 "Hg4 mi
7:00 AM48 °FPassing clouds.16 mph94%29.95 "Hg4 mi
6:30 AM48 °FPassing clouds.17 mph94%29.95 "Hg4 mi
5:30 AM48 °FPassing clouds.15 mph94%29.92 "Hg4 mi
5:00 AM48 °FDrizzle. Overcast.13 mph94%29.92 "Hg4 mi
4:00 AM48 °FPartly cloudy.16 mph94%29.89 "HgN/A
3:30 AM46 °FPassing clouds.15 mph100%29.92 "Hg4 mi
3:00 AM46 °FPartly cloudy.17 mph100%29.89 "HgN/A
2:30 AM46 °FPartly cloudy.16 mph100%29.92 "Hg3 mi
2:00 AM46 °FPartly cloudy.14 mph93%29.89 "Hg4 mi
1:30 AM46 °FPartly cloudy.17 mph93%29.89 "HgN/A
1:00 AM46 °FPartly cloudy.15 mph93%29.89 "HgN/A
12:00 AM46 °FPartly cloudy.17 mph93%29.89 "HgN/A
11:00 PM
Tue, Nov 24
46 °FPartly cloudy.17 mph93%29.89 "HgN/A
10:00 PM46 °FPartly cloudy.14 mph93%29.89 "HgN/A
9:30 PM46 °FPassing clouds.16 mph93%29.89 "HgN/A
9:00 PM46 °FPartly cloudy.16 mph93%29.89 "HgN/A
8:30 PM46 °FPassing clouds.13 mph93%29.89 "HgN/A
8:00 PM46 °FPassing clouds.17 mph93%29.86 "HgN/A
7:30 PM46 °FPartly cloudy.16 mph93%29.86 "HgN/A
7:00 PM46 °FPartly cloudy.16 mph93%29.86 "HgN/A
6:30 PM46 °FPartly cloudy.18 mph93%29.86 "HgN/A
6:00 PM46 °FPartly cloudy.17 mph93%29.86 "HgN/A
Weather by CustomWeather, © 2015

See weather overviewHow to use our weather pages